Location: Unspecified
(40.8819°N, 0.0000°E)
Time: 04:21:02
(UTC+00:00)

RS-44 - Visible Passes

Search period start: 19 September 2024 00:00
Search period end: 29 September 2024 00:00
Orbit: 1175 x 1510 km, 82.5° (Epoch: 18 September)

Date Brightness Start Highest point End Pass type
(mag) Time Alt. Az. Time Alt. Az. Time Alt. Az.
19 Sep ? 02:10:57 21° SE 02:16:08 38° E 02:23:49 10° NNE visible
19 Sep ? 04:03:37 22° SW 04:09:20 49° WNW 04:17:38 10° N visible
20 Sep ? 02:35:32 33° SSE 02:39:40 58° E 02:48:01 10° NNE visible
20 Sep ? 04:28:11 18° WSW 04:33:28 32° WNW 04:40:59 10° N visible
21 Sep ? 01:07:23 13° ESE 01:11:08 17° ENE 01:16:06 10° NE visible
21 Sep ? 03:00:02 45° S 03:03:21 85° E 03:11:57 10° N visible
21 Sep ? 04:52:41 13° WSW 04:57:47 21° WNW 05:03:55 10° NNW visible
22 Sep ? 01:31:48 24° ESE 01:34:23 27° E 01:41:11 10° NNE visible
22 Sep ? 03:24:27 46° SW 03:27:11 66° W 03:35:41 10° N visible
22 Sep ? 05:18:41 10° W 05:22:19 13° WNW 05:25:55 10° NNW visible
23 Sep ? 01:56:10 39° ESE 01:57:49 42° E 02:05:37 10° NNE visible
23 Sep ? 03:48:49 37° WSW 03:51:11 44° WNW 03:59:11 10° N visible
24 Sep ? 00:27:50 10° E 00:29:35 11° ENE 00:31:28 10° ENE visible
24 Sep ? 02:20:28 61° ESE 02:21:24 64° E 02:29:43 10° NNE visible
24 Sep ? 04:13:06 26° W 04:15:20 29° WNW 04:22:25 10° NNW visible
25 Sep ? 00:52:05 19° E 00:52:43 19° E 00:58:10 10° NE visible
25 Sep ? 02:44:44 83° SW 02:45:08 87° W 02:53:35 10° N visible
25 Sep ? 04:37:21 17° W 04:39:41 18° WNW 04:45:12 10° NNW visible
26 Sep ? 01:16:18 30° E 01:16:18 30° E 01:23:02 10° NNE visible
26 Sep ? 03:08:56 59° W 03:08:59 59° WNW 03:17:15 10° N visible
26 Sep ? 05:02:16 10° WNW 05:04:16 11° WNW 05:06:17 10° NW visible
27 Sep ? 01:40:28 45° ENE 01:40:28 45° ENE 01:47:22 10° NNE visible
27 Sep ? 03:33:05 39° WNW 03:33:05 39° WNW 03:40:42 10° N visible
28 Sep ? 00:11:58 12° ENE 00:11:58 12° ENE 00:14:17 10° NE visible
28 Sep ? 02:04:35 61° NE 02:04:35 61° NE 02:11:23 10° NNE visible
28 Sep ? 03:57:13 25° WNW 03:57:13 25° WNW 04:03:49 10° NNW visible
